User: anonymous   Login
Location: Cronhütte
(48.9135°N, 9.6869°E)
Time: 21:13:38
(UTC+00:00)
Language:

Resurs 1-4 Rocket - Orbit

View from above orbital plane
View from above orbital plane
View from above satellite
View from above satellite

Ground track
Ground track

The orbit data is extracted from the following two-line orbital elements,

1 25400U 98043G   24197.54249236  .00000173  00000-0  91767-4 0  9998
2 25400  98.7452 138.5375 0009284 328.0359  32.0256 14.25768687353174
Epoch (UTC): 15 July 2024 13:01:11
Eccentricity: 0.0009284
inclination: 98.7452°
perigee height: 799 km
apogee height: 812 km
right ascension of ascending node: 138.5375°
argument of perigee: 328.0359°
revolutions per day: 14.25768687
mean anomaly at epoch: 32.0256°
orbit number at epoch: 35317

The dashed part of the orbit path shows where the satellite is in the earth's shadow,  

DLR